Weather Roundup
Issued by NWS Chicago, IL

Home | Current Version | Previous Version | Text Only | Print | Product List | Glossary On
Versions: 1 2 3 4 5 6 7 8 9 10 11 12 13 14 15 16 17 18 19 20 21 22 23 24 25 26 27 28 29 30 31 32 33 34 35 36 37 38 39 40 41 42 43 44 45 46 47 48 49 50
000
NZUS59 KLOT 251408
HRRLOT

CHICAGO AREA WEATHER ROUNDUP
NATIONAL WEATHER SERVICE CHICAGO/ROMEOVILLE IL
900 AM CDT MON JUL 25 2016

NOTE: "FAIR" INDICATES FEW OR NO CLOUDS BELOW 12,000 FEET WITH NO
SIGNIFICANT WEATHER AND/OR OBSTRUCTIONS TO VISIBILITY.

* THESE STATIONS ARE NOT UNDER NWS QUALITY CONTROL. THEY ALSO MAY NOT
  REPORT WEATHER SUCH AS PRECIPITATION OR FOG.

ILZ005-006-012>014-019>023-251500-
NORTHEAST ILLINOIS

CITY           SKY/WX    TMP DP  RH WIND       PRES   REMARKS
OHARE          PTSUNNY   78  65  63 N13       29.99R HX  80
MIDWAY         PTSUNNY   81  66  60 NW10      29.99R HX  83
AURORA         PTSUNNY   77  68  73 N10       30.00S
LANSING*       SUNNY     80  65  61 N8        30.00R HX  81
JOLIET*        MOSUNNY   80  69  69 N5        30.00R HX  83
WAUKEGAN       MOSUNNY   79  65  62 VRB7      29.97S HX  81
DUPAGE AIRPORT MOSUNNY   79  65  62 N12       29.99S HX  81
WHEELING       CLOUDY    79  66  64 N6        30.00R HX  81
KANKAKEE*      MOSUNNY   78  72  81 NW7       30.01F HX  80
MORRIS*        MOSUNNY   77  69  78 CALM      30.00R
LEWIS AIRPORT* MOSUNNY   78  66  65 N7        30.01R HX  80
NORTHERLY ISL    N/A     79  62  56 N8          N/A  HX  80
$$

WIZ051-052-058>065-066-070>072-251500-
SOUTHEAST WISCONSIN

CITY           SKY/WX    TMP DP  RH WIND       PRES   REMARKS
MILWAUKEE      MOSUNNY   79  64  60 NW10      29.98S HX  81
KENOSHA*       SUNNY     78  66  66 NW9       29.99S HX  80
RACINE*        SUNNY     78  65  63 NW7       30.00S HX  80
BURLINGTON     SUNNY     76  66  72 NW6       30.00S
WAUKESHA       SUNNY     70  64  83 W8        30.00S
$$

INZ001>003-010>013-019-020-251500-
NORTHWEST INDIANA

CITY           SKY/WX    TMP DP  RH WIND       PRES   REMARKS
GARY*          PTSUNNY   79 N/A N/A N10       30.00R
MICHIGAN CITY* NOT AVBL
RENSSELAER*    NOT AVBL
VALPARAISO     SUNNY     79  68  69 VRB6      30.00R HX  81
$$

LMZ740>746-251500-
SOUTHERN LAKE MICHIGAN

STATION/POSITION TIME  SKY/WX   TEMP WIND        PRES    VSBY
                                AIR  DIR/SP/G
                 (UTC)          (F)  (DEG/KT/KT) (MB)    (MI)
HARRISON CRIB    1300            76  320/ 14/ 15   N/A
BURNHAM HARBOR   1400            79   20/  7/ 13   N/A
CALUMET HARBOR   1300            78  310/  3/  7 1014.2R
BURNS HARBOR     1300            74  310/  7/  9 1015.6R
MICHIGAN CITY    1300            75  290/  5/  6   N/A
$$

ABBREVIATIONS USED IN REMARKS
   TC - TEMPERATURE IN CELSIUS
  WCI - WIND CHILL INDEX
   HX - HEAT INDEX
  VSB - VISIBILITY
$$




USA.gov is the U.S. government's official web portal to all federal, state and local government web resources and services.